Portada
METAR-TAF:

METAR-TAF

Aeroports :

Meriden-Markham Municipal Airport

Meriden, Connecticut, Estats Units d'Amèrica

latitud: 41-30-35N, longitud: 072-49-40W, altitud: 31 m

Observació

L'informe es va fer fa 53 minuts, a les 11:53 UTC
Vent calma
Temperatura 17°C
Humitat 100%
Pressió 1025 hPa
Visibilitat: 4.8 km
Cel cobert a una alçada de 1800 ft
boirina

METAR: KMMK 221153Z AUTO 00000KT 3SM BR OVC018 17/17 A3026 RMK AO2 SLP244 T01720167 10183 20172 53010

Hora: 08:46 (12:46 UTC)


TAF: manca

Observacions i pronòstics meteorològics de més de 4000 aeroports (METAR i TAF).

Les estacions disponibles són els punts grocs i vermells al mapa.

Posi el ratolí al punt desitjat per veure el nom de l'estació.

Feu clic per veure les observacions i els pronòstics meteorològics.

Per canviar el mapa: feu clic els botons verds amb una creu de color negre per apropar; al botó verd amb un guió per allunyar la imatge; o en les fletxes verdes per a mapes adjacents.


METAR-TAF: